Content
SEND FEEDBACK

Daily
Averages
Monthly
Summary
Brazil

PALMARES, PERNAMBUCO


Home > South America > Brazil > Pernambuco
Elevation: 377 feet     Latitude: 09 31S     Longitude: 035 47W

WEATHER
 
SELECT A DAY
Number of Records: 160,117;   Date Range: 6/30/96 - 11/27/14
 
SHARE

PRINT THIS DATA

[ ← Previous Day ]
WEATHER ALMANAC - JANUARY 31, 2013
[ Next Day → ]
[ °C ]   °F
Weather ElementAverageHighLow
Temperature78.8 °F89.6 °F (3:00 pm)69.8 °F (5:00 am)
Dewpoint68 °F71.6 °F (8:00 am)62.6 °F (3:00 pm)
Humidity71.2 %94 % (2:00 am)38 % (4:00 pm)
Barometer29.91 in29.95 in (8:00 am)29.83 in (5:00 pm)
Wind Speed8.6 mph17.3 mph (4:00 pm)
Wind Gust25.3 mph (1:00 pm)
Weather ElementAverage
Visibility7.2 mi
Wind DirectionESE (113.3 °)

Weather ElementTotal
Precipitation---
Cooling Degree Days14.7 (Base 65)
Growing Degree Days29.7 (Base 50)
Averaged from 27 records on January 31, 2013
WEATHER CONDITIONS BREAKOUT
WIND DIRECTION BREAKOUT
WEATHER BY HOUR - JANUARY 31, 2013
[ °C ]   °F
Local TimeTemperatureDewpointHumidityBarometerVisibilityWind DirectionWind SpeedGust SpeedPrecipitationEventsConditions
1:00 AM73.4 °F69.8 °F88 %29.92 in6.2 miNE (50°)3.5 mphPartly Cloudy
2:00 AM71.6 °F69.8 °F94 %29.92 in6.2 miNE (50°)2.3 mphPartly Cloudy
3:00 AM71.6 °F69.8 °F94 %29.92 in6.2 miNNE (30°)3.5 mphPartly Cloudy
4:00 AM71.0 °F69.0 °F90 %29.90 in12.0 miNorth (350°)3.5 mphScattered Clouds
4:00 AM71.6 °F68.0 °F88 %29.92 in6.2 miNorth (350°)3.5 mphPartly Cloudy
5:00 AM69.8 °F68.0 °F94 %29.89 in6.2 miNorth (10°)3.5 mphPartly Cloudy
6:00 AM69.8 °F68.0 °F94 %29.92 in6.2 miNNW (340°)3.5 mphPartly Cloudy
7:00 AM69.8 °F68.0 °F94 %29.92 in6.2 miNorth (350°)3.5 mphPartly Cloudy
8:00 AM77.0 °F71.6 °F83 %29.95 in6.2 miNNE (20°)5.8 mphPartly Cloudy
9:00 AM80.6 °F69.8 °F70 %29.95 in6.2 miNNE (30°)8.1 mphPartly Cloudy
10:00 AM83.0 °F69.0 °F53 %29.95 in12.0 miENE (70°)8.1 mphScattered Clouds
10:00 AM82.4 °F68.0 °F62 %29.95 in6.2 miENE (70°)8.1 mphPartly Cloudy
11:00 AM84.2 °F68.0 °F58 %29.95 in6.2 miEast (90°)11.5 mphPartly Cloudy
12:00 PM86.0 °F66.2 °F51 %29.92 in6.2 miEast (90°)12.7 mphPartly Cloudy
1:00 PM87.8 °F64.4 °F46 %29.92 in6.2 miEast (100°)13.8 mph25.3 mphPartly Cloudy
2:00 PM87.8 °F64.4 °F46 %29.89 in6.2 miEast (100°)15.0 mphPartly Cloudy
3:00 PM89.6 °F62.6 °F40 %29.86 in6.2 miEast (100°)13.8 mphPartly Cloudy
4:00 PM87.0 °F65.0 °F38 %29.85 in12.0 miEast (100°)17.3 mphScattered Clouds
4:00 PM87.8 °F64.4 °F46 %29.86 in6.2 miEast (100°)17.3 mphPartly Cloudy
5:00 PM86.0 °F66.2 °F51 %29.83 inEast (90°)15.0 mphClear
6:00 PM82.4 °F68.0 °F62 %29.86 inEast (90°)13.8 mphClear
7:00 PM78.8 °F69.8 °F74 %29.86 inEast (90°)11.5 mphClear
8:00 PM77.0 °F69.8 °F78 %29.89 inEast (80°)8.1 mphClear
9:00 PM77.0 °F69.8 °F78 %29.89 in6.2 miEast (80°)6.9 mphPartly Cloudy
10:00 PM75.0 °F70.0 °F79 %29.91 in12.0 miEast (80°)5.8 mphScattered Clouds
10:00 PM75.2 °F69.8 °F83 %29.92 in6.2 miEast (80°)5.8 mphPartly Cloudy
11:00 PM73.4 °F69.8 °F88 %29.92 in6.2 miENE (70°)5.8 mphPartly Cloudy
Hourly data recorded from SBMO, located miles away from Palmares, Pernambuco







STORIES FROM OUR PARTNERS